Simultaneous Nadir Overpasses (SNOs) Predictions

Prediction of SNOs between AQUA and METOP-B Satellite Orbit:

Table of predicted SNOs for the next 14.0 days since TLE Epoch: 8/29/2025
Index Date (AQUA) Time (AQUA) Lat,Lon (AQUA) SZA (AQUA ) Date (METOP-B) Time (METOP-B) Lat,Lon (METOP-B) SZA (METOP-B ) Distance(km) Time Diff (sec)
1 08/30/2025 20:13:44 77.88,-123.58 69.13 08/30/2025 20:13:28 77.87,-123.70 69.12 2.96 16
2 08/30/2025 21:03:02 -77.92, 43.88 110.82 08/30/2025 21:04:08 -77.93, 43.91 110.81 0.97 66
3 09/02/2025 08:12:19 -77.91,-123.30 109.94 09/02/2025 08:11:46 -77.89,-123.22 109.96 2.91 33
4 09/02/2025 09:01:38 77.93, 44.27 70.10 09/02/2025 09:02:25 77.94, 44.34 70.11 1.72 47
5 09/04/2025 20:10:53 77.87,-122.72 70.95 09/04/2025 20:10:03 77.89,-122.84 70.96 3.16 50
6 09/04/2025 21:00:11 -77.92, 44.77 109.00 09/04/2025 21:00:44 -77.91, 44.61 109.00 3.70 33
7 09/07/2025 08:09:25 -77.90,-122.41 108.09 09/07/2025 08:08:20 -77.90,-122.38 108.09 0.79 65
8 09/07/2025 08:58:44 77.93, 45.12 71.95 09/07/2025 08:58:59 77.94, 45.14 71.96 1.01 15
9 09/09/2025 20:07:51 77.61,-120.67 72.57 09/09/2025 20:06:45 77.54,-123.67 72.49 72.35 66
10 09/09/2025 20:57:16 -77.96, 45.44 107.08 09/09/2025 20:57:17 -77.95, 45.60 107.09 3.63 1
11 09/09/2025 21:46:43 78.33,-148.75 73.32 09/09/2025 21:47:47 78.35,-144.99 73.35 84.60 64
12 09/12/2025 08:55:47 77.94, 45.97 73.86 09/12/2025 08:55:33 77.96, 46.04 73.88 3.02 14



Historial Predications of SNOs between AQUA and METOP-B
